AAL81 EGLL-KDFW

Flight info

Callsign AAL81
Flight time N/A
Altitude 34000
Route CPT L9 DIDZA N14 OKTAD DCT MEDOG DCT KRAGY DCT PEMOB DCT VATRY DCT KORAK DCT REVNU DCT PIGET DCT SUNOT/M083F340 DCT 59N020W 59N030W 59N040W 59N050W/M083F360 DCT AVUTI/N0490F360 N852B TEALS DCT YGL/N0489F380 DCT PELEE DCT XEXUL DCT TRUDY DCT YQT DCT HHOGS DCT GEP DCT ORSKY DCT SIMJI DCT OVR/N0477F400 DCT CATTS DCT PER DCT IBAKE VKTRY2
Aircraft B772/H-SDE2E3FGHIJ5LORVWXY/LB1D1

Departure

Time 2026-05-05 20:43
Airport London Heathrow Airport (EGLL)

Arrival

Time N/A
Airport Dallas Fort Worth International Airport (KDFW)
Time Latitude Longitude Altitude Speed Heading
2026-05-05 20:21 51.47430 -0.46512 91 ft 0 kts 165°
2026-05-05 20:30 51.47453 -0.46520 91 ft 4 kts 175°
2026-05-05 20:31 51.47479 -0.46519 91 ft 4 kts 195°
2026-05-05 20:31 51.47501 -0.46504 92 ft 4 kts 223°
2026-05-05 20:31 51.47514 -0.46476 92 ft 4 kts 262°
2026-05-05 20:31 51.47515 -0.46466 91 ft 0 kts 269°
2026-05-05 20:34 51.47515 -0.46487 93 ft 7 kts 269°
2026-05-05 20:34 51.47514 -0.46606 94 ft 11 kts 269°
2026-05-05 20:35 51.47507 -0.46735 93 ft 12 kts 251°
2026-05-05 20:35 51.47489 -0.46862 92 ft 10 kts 250°
2026-05-05 20:35 51.47427 -0.46890 92 ft 11 kts 168°
2026-05-05 20:35 51.47347 -0.46871 94 ft 12 kts 179°
2026-05-05 20:36 51.47265 -0.46869 94 ft 12 kts 180°
2026-05-05 20:36 51.47184 -0.46868 92 ft 12 kts 180°
2026-05-05 20:36 51.47095 -0.46867 91 ft 13 kts 179°
2026-05-05 20:36 51.47003 -0.46866 91 ft 13 kts 180°
2026-05-05 20:37 51.46911 -0.46866 91 ft 13 kts 180°
2026-05-05 20:37 51.46819 -0.46865 91 ft 13 kts 180°
2026-05-05 20:37 51.46726 -0.46864 94 ft 13 kts 180°
2026-05-05 20:37 51.46657 -0.46928 93 ft 13 kts 262°
2026-05-05 20:38 51.46656 -0.47077 94 ft 14 kts 270°
2026-05-05 20:38 51.46656 -0.47232 94 ft 14 kts 270°
2026-05-05 20:38 51.46655 -0.47386 94 ft 14 kts 269°
2026-05-05 20:38 51.46655 -0.47542 93 ft 14 kts 269°
2026-05-05 20:39 51.46654 -0.47689 91 ft 13 kts 269°
2026-05-05 20:39 51.46653 -0.47831 91 ft 13 kts 269°
2026-05-05 20:39 51.46653 -0.47974 91 ft 13 kts 269°
2026-05-05 20:39 51.46652 -0.48118 91 ft 13 kts 269°
2026-05-05 20:40 51.46651 -0.48273 91 ft 14 kts 269°
2026-05-05 20:40 51.46651 -0.48431 91 ft 14 kts 269°
2026-05-05 20:40 51.46650 -0.48589 94 ft 13 kts 269°
2026-05-05 20:40 51.46648 -0.48707 94 ft 9 kts 258°
2026-05-05 20:41 51.46598 -0.48767 95 ft 9 kts 205°
2026-05-05 20:41 51.46535 -0.48791 91 ft 12 kts 176°
2026-05-05 20:41 51.46480 -0.48699 96 ft 14 kts 99°
2026-05-05 20:41 51.46479 -0.48596 92 ft 8 kts 90°
2026-05-05 20:42 51.46480 -0.48451 93 ft 28 kts 89°
2026-05-05 20:42 51.46480 -0.47801 91 ft 89 kts 90°
2026-05-05 20:42 51.46483 -0.46421 97 ft 158 kts 90°
2026-05-05 20:42 51.46467 -0.44467 556 ft 181 kts 89°
2026-05-05 20:43 51.46453 -0.42426 1411 ft 182 kts 92°
2026-05-05 20:43 51.46199 -0.40414 1736 ft 193 kts 111°
2026-05-05 20:43 51.45432 -0.38583 1925 ft 205 kts 134°
2026-05-05 20:43 51.44167 -0.37373 2117 ft 223 kts 161°
2026-05-05 20:44 51.42575 -0.37216 2331 ft 239 kts 191°
2026-05-05 20:44 51.41037 -0.38377 2499 ft 255 kts 222°
2026-05-05 20:44 51.40034 -0.40741 2841 ft 263 kts 254°
2026-05-05 20:44 51.39939 -0.43648 3246 ft 264 kts 282°
2026-05-05 20:45 51.40766 -0.49416 4385 ft 265 kts 284°
2026-05-05 20:45 51.41147 -0.52302 4996 ft 266 kts 283°
2026-05-05 20:45 51.41511 -0.55223 5514 ft 268 kts 282°
2026-05-05 20:46 51.41859 -0.58164 5990 ft 268 kts 282°
2026-05-05 20:46 51.42197 -0.61138 6095 ft 274 kts 282°
2026-05-05 20:46 51.42530 -0.64139 6626 ft 274 kts 282°
2026-05-05 20:46 51.42857 -0.67135 7208 ft 272 kts 281°
2026-05-05 20:47 51.43181 -0.70133 7671 ft 274 kts 281°
2026-05-05 20:47 51.43506 -0.73151 8159 ft 276 kts 281°
2026-05-05 20:47 51.43844 -0.76195 8627 ft 278 kts 282°
2026-05-05 20:47 51.44217 -0.79238 9077 ft 279 kts 283°
2026-05-05 20:48 51.44595 -0.82296 9538 ft 281 kts 283°
2026-05-05 20:48 51.44973 -0.85378 9980 ft 282 kts 282°
2026-05-05 20:48 51.45354 -0.88510 10198 ft 293 kts 282°
2026-05-05 20:48 51.45739 -0.91813 10336 ft 309 kts 282°
2026-05-05 20:49 51.46137 -0.95292 10466 ft 326 kts 281°
2026-05-05 20:49 51.46556 -0.98968 10601 ft 344 kts 281°
2026-05-05 20:49 51.46996 -1.02822 10850 ft 358 kts 281°
2026-05-05 20:49 51.47453 -1.06785 11362 ft 364 kts 281°
2026-05-05 20:50 51.47918 -1.10810 11956 ft 370 kts 281°
2026-05-05 20:50 51.48387 -1.14882 12702 ft 373 kts 281°
2026-05-05 20:50 51.48875 -1.18988 13416 ft 373 kts 284°
2026-05-05 20:50 51.49898 -1.22823 13925 ft 380 kts 304°
2026-05-05 20:51 51.51686 -1.25965 14508 ft 383 kts 317°
2026-05-05 20:51 51.53687 -1.28847 15055 ft 389 kts 317°
2026-05-05 20:51 51.55690 -1.31792 15814 ft 391 kts 316°
2026-05-05 20:51 51.57690 -1.34788 16443 ft 396 kts 316°
2026-05-05 20:52 51.59637 -1.37956 17075 ft 401 kts 310°
2026-05-05 20:52 51.61351 -1.41512 17694 ft 405 kts 304°
2026-05-05 20:52 51.62834 -1.45400 18332 ft 409 kts 297°
2026-05-05 20:52 51.64156 -1.49466 18956 ft 410 kts 296°
2026-05-05 20:53 51.65469 -1.53555 19663 ft 412 kts 297°
2026-05-05 20:53 51.66803 -1.57655 20234 ft 416 kts 297°
2026-05-05 20:53 51.68162 -1.61792 20826 ft 419 kts 297°
2026-05-05 20:53 51.69404 -1.66035 21469 ft 420 kts 290°
2026-05-05 20:54 51.70309 -1.70512 22083 ft 421 kts 284°
2026-05-05 20:54 51.70933 -1.75146 22655 ft 424 kts 278°
2026-05-05 20:54 51.71273 -1.79873 23199 ft 426 kts 275°
2026-05-05 20:54 51.71595 -1.84640 23686 ft 430 kts 277°
2026-05-05 20:55 51.72149 -1.89397 24091 ft 433 kts 282°
2026-05-05 20:55 51.72863 -1.94122 24500 ft 436 kts 283°
2026-05-05 20:55 51.73591 -1.98829 24894 ft 439 kts 283°
2026-05-05 20:55 51.74336 -2.03680 25304 ft 441 kts 283°
2026-05-05 20:56 51.75058 -2.08445 25680 ft 444 kts 282°
2026-05-05 20:56 51.75784 -2.13302 26067 ft 446 kts 282°
2026-05-05 20:56 51.76506 -2.18184 26434 ft 449 kts 282°
2026-05-05 20:56 51.77228 -2.23105 26767 ft 452 kts 282°
2026-05-05 20:57 51.77952 -2.28053 27104 ft 454 kts 282°
2026-05-05 20:57 51.78677 -2.33029 27441 ft 457 kts 282°
2026-05-05 20:57 51.79406 -2.38035 27740 ft 459 kts 282°
2026-05-05 20:57 51.80137 -2.43072 28037 ft 462 kts 282°
2026-05-05 20:58 51.80869 -2.48129 28323 ft 464 kts 282°
2026-05-05 20:58 51.81603 -2.53219 28579 ft 467 kts 282°
2026-05-05 20:58 51.82330 -2.58350 28831 ft 469 kts 282°
2026-05-05 20:58 51.83033 -2.63501 29087 ft 470 kts 282°
2026-05-05 20:59 51.83726 -2.68670 29339 ft 472 kts 282°
2026-05-05 20:59 51.84420 -2.73882 29533 ft 474 kts 282°
2026-05-05 20:59 51.85114 -2.79096 29844 ft 474 kts 282°
2026-05-05 20:59 51.85806 -2.84296 30154 ft 473 kts 282°
2026-05-05 21:00 51.86498 -2.89499 30393 ft 473 kts 282°
2026-05-05 21:00 51.87189 -2.94709 30646 ft 473 kts 282°
2026-05-05 21:00 51.87876 -2.99898 30864 ft 473 kts 282°
2026-05-05 21:00 51.88563 -3.05111 31096 ft 472 kts 282°
2026-05-05 21:01 51.89246 -3.10304 31334 ft 472 kts 283°
2026-05-05 21:01 51.89926 -3.15495 31545 ft 472 kts 283°
2026-05-05 21:01 51.90604 -3.20698 31778 ft 472 kts 283°
2026-05-05 21:01 51.91280 -3.25904 31974 ft 472 kts 283°
2026-05-05 21:02 51.91952 -3.31103 32163 ft 472 kts 282°
2026-05-05 21:02 51.92624 -3.36318 32382 ft 472 kts 282°
2026-05-05 21:02 51.93292 -3.41512 32606 ft 471 kts 282°
2026-05-05 21:02 51.93958 -3.46710 32829 ft 471 kts 282°
2026-05-05 21:03 51.94620 -3.51896 33073 ft 470 kts 282°
2026-05-05 21:03 51.95279 -3.57085 33294 ft 469 kts 282°
2026-05-05 21:03 51.95936 -3.62256 33531 ft 469 kts 282°
2026-05-05 21:03 51.96592 -3.67426 33764 ft 468 kts 282°
2026-05-05 21:04 51.97246 -3.72594 33942 ft 468 kts 282°
2026-05-05 21:04 51.97899 -3.77773 33979 ft 469 kts 282°
2026-05-05 21:04 51.99194 -3.88104 34014 ft 465 kts 282°
2026-05-05 21:05 52.00469 -3.98362 34029 ft 463 kts 281°
2026-05-05 21:05 52.01723 -4.08524 34027 ft 461 kts 281°
2026-05-05 21:06 52.02974 -4.18739 34031 ft 461 kts 281°
2026-05-05 21:06 52.04014 -4.27294 34021 ft 461 kts 281°
2026-05-05 21:07 52.05248 -4.37513 34036 ft 461 kts 281°
2026-05-05 21:07 52.06473 -4.47747 34032 ft 461 kts 281°
2026-05-05 21:08 52.07689 -4.57975 34037 ft 461 kts 281°
2026-05-05 21:08 52.08898 -4.68226 34037 ft 461 kts 281°
2026-05-05 21:09 52.10096 -4.78464 34022 ft 461 kts 281°
2026-05-05 21:09 52.11288 -4.88715 34046 ft 461 kts 281°
2026-05-05 21:10 52.12466 -4.98958 34045 ft 460 kts 280°
2026-05-05 21:10 52.13675 -5.09089 34026 ft 457 kts 287°
2026-05-05 21:11 52.15005 -5.13775 34054 ft 457 kts 304°
2026-05-05 21:11 52.17070 -5.17720 34039 ft 460 kts 317°
2026-05-05 21:11 52.19661 -5.20778 34060 ft 461 kts 330°
2026-05-05 21:11 52.22530 -5.23130 34027 ft 463 kts 333°
2026-05-05 21:12 52.28366 -5.27690 34045 ft 466 kts 333°
2026-05-05 21:12 52.34195 -5.32381 34047 ft 468 kts 332°
2026-05-05 21:13 52.40025 -5.37198 34051 ft 470 kts 332°
2026-05-05 21:13 52.45859 -5.42048 34059 ft 470 kts 332°
2026-05-05 21:14 52.51668 -5.46951 34054 ft 468 kts 327°
2026-05-05 21:14 52.56608 -5.53735 34064 ft 463 kts 310°
2026-05-05 21:15 52.60275 -5.62351 34063 ft 460 kts 301°
2026-05-05 21:15 52.63620 -5.71341 34061 ft 460 kts 300°
2026-05-05 21:16 52.66972 -5.80314 34062 ft 460 kts 301°
2026-05-05 21:16 52.70343 -5.89262 34064 ft 460 kts 301°
2026-05-05 21:17 52.73723 -5.98221 34066 ft 460 kts 301°
2026-05-05 21:17 52.77093 -6.07183 34062 ft 459 kts 301°
2026-05-05 21:18 52.80455 -6.16157 34062 ft 459 kts 300°
2026-05-05 21:18 52.83807 -6.25139 34062 ft 459 kts 300°
2026-05-05 21:19 52.87151 -6.34133 34064 ft 459 kts 300°
2026-05-05 21:19 52.90486 -6.43131 34064 ft 458 kts 300°
2026-05-05 21:20 52.93789 -6.52079 34066 ft 458 kts 300°
2026-05-05 21:20 52.97104 -6.61090 34071 ft 457 kts 300°
2026-05-05 21:21 53.00407 -6.70102 34068 ft 457 kts 300°
2026-05-05 21:21 53.03700 -6.79116 34071 ft 456 kts 300°
2026-05-05 21:22 53.06983 -6.88137 34069 ft 456 kts 300°
2026-05-05 21:22 53.10260 -6.97176 34077 ft 456 kts 300°
2026-05-05 21:23 53.13527 -7.06218 34075 ft 456 kts 300°
2026-05-05 21:23 53.16796 -7.15297 34078 ft 457 kts 300°
2026-05-05 21:24 53.20054 -7.24382 34076 ft 457 kts 300°
2026-05-05 21:24 53.23310 -7.33491 34081 ft 457 kts 299°
2026-05-05 21:25 53.26556 -7.42609 34084 ft 457 kts 299°
2026-05-05 21:25 53.29793 -7.51733 34085 ft 456 kts 299°
2026-05-05 21:26 53.33019 -7.60858 34091 ft 455 kts 299°
2026-05-05 21:26 53.36234 -7.69983 34087 ft 455 kts 299°
2026-05-05 21:27 53.39478 -7.79065 34091 ft 454 kts 302°
2026-05-05 21:27 53.43341 -7.87461 34092 ft 455 kts 307°
2026-05-05 21:28 53.47349 -7.95682 34102 ft 455 kts 307°
2026-05-05 21:28 53.51337 -8.03931 34105 ft 455 kts 307°
2026-05-05 21:29 53.55301 -8.12212 34108 ft 455 kts 307°
2026-05-05 21:29 53.59252 -8.20514 34115 ft 454 kts 307°
2026-05-05 21:30 53.63197 -8.28834 34113 ft 454 kts 306°
2026-05-05 21:30 53.67136 -8.37165 34116 ft 454 kts 306°
2026-05-05 21:31 53.71067 -8.45508 34113 ft 454 kts 306°
2026-05-05 21:31 53.74988 -8.53855 34131 ft 453 kts 306°
2026-05-05 21:32 53.78898 -8.62210 34114 ft 453 kts 306°
2026-05-05 21:32 53.82800 -8.70571 34118 ft 453 kts 306°
2026-05-05 21:33 53.86690 -8.78939 34117 ft 452 kts 306°
2026-05-05 21:33 53.90579 -8.87330 34132 ft 452 kts 306°
2026-05-05 21:34 53.94461 -8.95736 34133 ft 452 kts 306°
2026-05-05 21:34 53.98336 -9.04153 34132 ft 452 kts 306°
2026-05-05 21:35 54.02179 -9.12531 34127 ft 452 kts 306°
2026-05-05 21:35 54.06042 -9.20981 34136 ft 452 kts 306°
2026-05-05 21:36 54.09888 -9.29421 34130 ft 452 kts 305°
2026-05-05 21:36 54.13750 -9.37925 34138 ft 452 kts 305°
2026-05-05 21:37 54.17593 -9.46416 34139 ft 452 kts 305°
2026-05-05 21:37 54.21433 -9.54932 34137 ft 453 kts 305°
2026-05-05 21:38 54.25269 -9.63466 34141 ft 453 kts 305°
2026-05-05 21:38 54.29099 -9.72018 34139 ft 453 kts 305°
2026-05-05 21:39 54.32923 -9.80585 34145 ft 453 kts 305°
2026-05-05 21:39 54.36745 -9.89176 34145 ft 453 kts 305°
2026-05-05 21:40 54.40556 -9.97775 34148 ft 453 kts 305°
2026-05-05 21:40 54.44367 -10.06396 34152 ft 453 kts 305°